sat.trackr.live / text

‹ back to catalog

STARLINK-2222

NORAD 48572 · 2021-041V

PAYLOAD ACTIVE UNKNOWN

§ Identity

Operator
Country
US
Launch date
2021-05-15
Launch site
AFETR
Launch vehicle
Mass (kg)
RCS (m²)

Purposes: comms

External: N2YO · Heavens-Above · Gunter

§ Orbital elements

Epoch: 2026-09-14T07:17:24.571104Z

Period
94.01 min
Inclination
53.1611°
Eccentricity
0.0001386
Mean motion
15.31701277 rev/d
Perigee alt
469.8 km
Apogee alt
471.7 km
Semi-major
6,848.9 km
B*
3.2955e-5
RAAN
351.1506°
Arg perigee
92.8059°
Mean anomaly
267.3101°
Rev number
29,385

§ Raw data

STARLINK-22221 48572U 21041V   26257.30375661  .00000658  00000+0  32955-4 0  99932 48572  53.1611 351.1506 0001386  92.8059 267.3101 15.31701277293858

JSON: /api/v1/satellites/48572 · /tle

For live sub-satellite position, see the globe view (requires WebGL).

§ Visibility from observer

Set your observer location to see the next 7 days of passes ≥ 10°. The values pass through the URL so the page stays shareable.

No JS? Fill the form by hand. The geolocation button needs JavaScript.